Home   Weather   Norrköping   Past weeks

Flag for Sweden Past Weather in Norrköping, Sweden — Yesterday and Last 2 Weeks

Now
36 °F

Passing clouds.


Feels Like: 29 °F
Forecast: 33 / 46 °F
Wind: 8 mph from Northeast

Location: Norrkoping Airport

Current Time: Apr 29, 2017 at 1:53:42 am

Latest Report: Apr 29, 2017 at 1:20 am


Visibility: N/A

Pressure: 30.12 "Hg

Humidity: 87%

Dew Point: 32 °F

Location of NorrköpingLocation

Past Weather in Norrköping — Graph

°F

Norrköping Temperature Yesterday

Maximum temperature yesterday: 48 °F (at 10:50 am)
Minimum temperature yesterday: 27 °F (at 4:50 am)
Average temperature yesterday: 38 °F

High & Low Weather Summary for the Past Weeks

 TemperatureHumidityPressure
High55 °F (Apr 21, 2:50 pm)100% (Apr 14, 2:20 am)30.54 "Hg (Apr 14, 2:20 am)
Low16 °F (Apr 15, 5:20 am)25% (Apr 19, 12:20 pm)29.30 "Hg (Apr 25, 2:50 am)
Average36 °F72%29.88 "Hg
* Reported Apr 14 12:20 am — Apr 29 12:50 am, Norrköping, Weather by CustomWeather, © 2017

Note: Actual official high and low records may vary slightly from our data, if they occured in-between our weather recording intervals... More about our weather records

Advertising

Norrköping Weather History for the Previous 24 Hours

Scroll right to see more
 ConditionsComfort  
Time TempWeatherWind HumidityBarometerVisibility
12:50 am
Sat, Apr 29
34 °FPassing clouds.7 mph93%30.12 "HgN/A
12:20 am36 °FPassing clouds.8 mph93%30.12 "HgN/A
11:50 pm
Fri, Apr 28
32 °FPassing clouds.5 mph100%30.12 "HgN/A
11:20 pm34 °FChilly.5 mph93%30.12 "HgN/A
10:50 pm34 °FPassing clouds.5 mph93%30.12 "HgN/A
10:20 pm36 °FPassing clouds.8 mph87%30.12 "HgN/A
9:50 pm36 °FPassing clouds.13 mph87%30.15 "HgN/A
9:20 pm37 °FPassing clouds.14 mph81%30.12 "HgN/A
8:50 pm37 °FPassing clouds.13 mph81%30.12 "HgN/A
8:20 pm37 °FPartly sunny.15 mph87%30.12 "HgN/A
7:50 pm39 °FPartly sunny.16 mph81%30.12 "HgN/A
7:20 pm41 °FPartly sunny.15 mph76%30.12 "HgN/A
6:50 pm41 °FScattered clouds.17 mph76%30.09 "HgN/A
6:20 pm41 °FPassing clouds.17 mph76%30.09 "HgN/A
5:50 pm43 °FPassing clouds.20 mph76%30.09 "HgN/A
5:20 pm43 °FPassing clouds.21 mph71%30.07 "HgN/A
4:50 pm45 °FPassing clouds.21 mph66%30.07 "HgN/A
4:20 pm45 °FScattered clouds.20 mph71%30.07 "HgN/A
3:50 pm46 °FScattered clouds.21 mph66%30.07 "HgN/A
3:20 pm46 °FScattered clouds.18 mph66%30.07 "HgN/A
2:50 pm46 °FPassing clouds.17 mph71%30.07 "HgN/A
2:20 pm46 °FPassing clouds.21 mph66%30.07 "HgN/A
1:50 pm46 °FPassing clouds.20 mph66%30.07 "HgN/A
1:20 pm46 °FPassing clouds.16 mph66%30.04 "HgN/A
12:50 pm46 °FPassing clouds.16 mph66%30.04 "HgN/A
12:20 pm46 °FPassing clouds.16 mph66%30.04 "HgN/A
11:50 am46 °FPassing clouds.16 mph71%30.04 "HgN/A
11:20 am46 °FPassing clouds.15 mph71%30.04 "HgN/A
10:50 am48 °FPassing clouds.15 mph71%30.04 "HgN/A
10:20 am46 °FPassing clouds.10 mph71%30.01 "HgN/A
9:50 am46 °FPassing clouds.10 mph71%30.01 "HgN/A
9:20 am41 °FPartly sunny.6 mph100%30.01 "HgN/A
8:50 am37 °FFog.7 mph100%30.01 "Hg2 mi
8:20 am36 °FLow clouds.6 mph100%30.01 "Hg1 mi
7:50 am34 °FFog.6 mph100%30.01 "Hg0 mi
7:20 am32 °FFog.6 mph100%29.98 "Hg0 mi
6:50 am32 °FIce fog.2 mph100%29.98 "Hg0 mi
6:20 am28 °FPartly sunny.3 mph100%29.98 "HgN/A
5:50 am27 °FChilly.2 mph100%29.95 "HgN/A
5:20 am27 °FChilly.No wind100%29.95 "HgN/A
4:50 am27 °FChilly.No wind100%29.95 "HgN/A
4:20 am28 °FChilly.2 mph100%29.95 "HgN/A
3:50 am28 °FChilly.3 mph100%29.95 "HgN/A
3:20 am28 °FChilly.No wind100%29.92 "HgN/A
2:50 am30 °FChilly.No wind93%29.92 "HgN/A
2:20 am30 °FChilly.2 mph93%29.92 "HgN/A
1:50 am30 °FChilly.2 mph100%29.92 "HgN/A
1:20 am30 °FChilly.1 mph100%29.92 "HgN/A
Weather by CustomWeather, © 2017

See weather overviewHow to use our weather pages